Tracking 30743 objects as of 21-Jun-2025
HD Live streaming from Space Station
objects crossing your sky now

OBJECT Z

Track OBJECT Z now!
10-day predictions
OBJECT Z is classified as:


NORAD ID: 57189
Int'l Code: 2023-091Z
Perigee: 496.3 km
Apogee: 507.2 km
Inclination: 97.6 °
Period: 94.5 minutes
Semi major axis: 6872 km
RCS: Unknown
Launch date: June 27, 2023
Source: (TBD)
Launch site: VOSTOCHNY COSMODROME (VOSTO)

Uplink (MHz):
Downlink (MHz): 437.825
Beacon (MHz):
Mode: 2k4/4k8*/9k6 GMSK_USP
Call sign: RS38S
Status: Active

Your satellite tracking list
Your tracking list is empty




NASA's NSSDC Master Catalog

Two Line Element Set (TLE):
1 57189U 23091Z   25171.82749995  .00007778  00000-0  32646-3 0  9997
2 57189  97.5595 231.5122 0007881 266.9555  93.0779 15.23727297109459
Source of the keplerian elements: AFSPC